owner,sensor,date,latitude,longitude,vertical_datum,mass_concentration_of_oxygen_in_sea_water,qcFlag 
DISL,ioos:station:DISL:CATA:1,2014-02-01T00:00:00Z,30.3085,-88.1395,1.876,12.91,1111122 
DISL,ioos:station:DISL:CATA:1,2014-02-01T00:30:00Z,30.3085,-88.1395,1.904,12.74,1111122 
DISL,ioos:station:DISL:CATA:1,2014-02-01T01:00:00Z,30.3085,-88.1395,1.937,12.56,1111122 
DISL,ioos:station:DISL:CATA:1,2014-02-01T01:30:00Z,30.3085,-88.1395,1.982,12.45,1111122 
DISL,ioos:station:DISL:CATA:1,2014-02-01T02:00:00Z,30.3085,-88.1395,2.007,12.39,1111122 
DISL,ioos:station:DISL:CATA:1,2014-02-01T02:30:00Z,30.3085,-88.1395,2.03,12.32,1111122 
DISL,ioos:station:DISL:CATA:1,2014-02-01T03:00:00Z,30.3085,-88.1395,2.055,12.25,1111122 
DISL,ioos:station:DISL:CATA:1,2014-02-01T03:30:00Z,30.3085,-88.1395,2.069,12.18,1111122 
DISL,ioos:station:DISL:CATA:1,2014-02-01T04:00:00Z,30.3085,-88.1395,2.085,12.1,1111122 
DISL,ioos:station:DISL:CATA:1,2014-02-01T04:30:00Z,30.3085,-88.1395,2.091,12.12,1111122 
DISL,ioos:station:DISL:CATA:1,2014-02-01T05:00:00Z,30.3085,-88.1395,2.078,12.07,1111122 
DISL,ioos:station:DISL:CATA:1,2014-02-01T05:30:00Z,30.3085,-88.1395,2.068,12.21,1111122 
DISL,ioos:station:DISL:CATA:1,2014-02-01T06:00:00Z,30.3085,-88.1395,2.033,12.17,1111122 
DISL,ioos:station:DISL:CATA:1,2014-02-01T06:30:00Z,30.3085,-88.1395,2.02,12.08,1111122 
DISL,ioos:station:DISL:CATA:1,2014-02-01T07:00:00Z,30.3085,-88.1395,2.011,11.97,1111122 
DISL,ioos:station:DISL:CATA:1,2014-02-01T07:30:00Z,30.3085,-88.1395,1.995,11.9,1111122 
DISL,ioos:station:DISL:CATA:1,2014-02-01T08:00:00Z,30.3085,-88.1395,1.968,11.88,1111122 
DISL,ioos:station:DISL:CATA:1,2014-02-01T08:30:00Z,30.3085,-88.1395,1.943,12.08,1111122 
DISL,ioos:station:DISL:CATA:1,2014-02-01T09:00:00Z,30.3085,-88.1395,1.93,12.13,1111122 
DISL,ioos:station:DISL:CATA:1,2014-02-01T09:30:00Z,30.3085,-88.1395,1.892,12.35,1111122 
DISL,ioos:station:DISL:CATA:1,2014-02-01T10:00:00Z,30.3085,-88.1395,1.853,12.23,1111122 
DISL,ioos:station:DISL:CATA:1,2014-02-01T10:30:00Z,30.3085,-88.1395,1.811,12.4,1111122 
DISL,ioos:station:DISL:CATA:1,2014-02-01T11:00:00Z,30.3085,-88.1395,1.767,12.47,1111122 
DISL,ioos:station:DISL:CATA:1,2014-02-01T11:30:00Z,30.3085,-88.1395,1.729,12.66,1111122 
DISL,ioos:station:DISL:CATA:1,2014-02-01T12:00:00Z,30.3085,-88.1395,1.693,12.75,1111122 
DISL,ioos:station:DISL:CATA:1,2014-02-01T12:30:00Z,30.3085,-88.1395,1.677,12.77,1111122 
DISL,ioos:station:DISL:CATA:1,2014-02-01T13:00:00Z,30.3085,-88.1395,1.657,12.66,1111122 
DISL,ioos:station:DISL:CATA:1,2014-02-01T13:30:00Z,30.3085,-88.1395,1.651,12.56,1111122 
DISL,ioos:station:DISL:CATA:1,2014-02-01T14:00:00Z,30.3085,-88.1395,1.656,12.55,1111122 
DISL,ioos:station:DISL:CATA:1,2014-02-01T14:30:00Z,30.3085,-88.1395,1.666,12.43,1111122 
DISL,ioos:station:DISL:CATA:1,2014-02-01T15:00:00Z,30.3085,-88.1395,1.674,12.51,1111122 
DISL,ioos:station:DISL:CATA:1,2014-02-01T15:30:00Z,30.3085,-88.1395,1.669,12.66,1111122 
DISL,ioos:station:DISL:CATA:1,2014-02-01T16:00:00Z,30.3085,-88.1395,1.681,12.58,1111122 
DISL,ioos:station:DISL:CATA:1,2014-02-01T16:30:00Z,30.3085,-88.1395,1.693,12.72,1111122 
DISL,ioos:station:DISL:CATA:1,2014-02-01T17:00:00Z,30.3085,-88.1395,1.703,12.77,1111122 
DISL,ioos:station:DISL:CATA:1,2014-02-01T17:30:00Z,30.3085,-88.1395,1.704,12.74,1111122 
DISL,ioos:station:DISL:CATA:1,2014-02-01T18:00:00Z,30.3085,-88.1395,1.722,12.89,1111122 
DISL,ioos:station:DISL:CATA:1,2014-02-01T18:30:00Z,30.3085,-88.1395,1.737,12.97,1111122 
DISL,ioos:station:DISL:CATA:1,2014-02-01T19:00:00Z,30.3085,-88.1395,1.762,13.01,1111122 
DISL,ioos:station:DISL:CATA:1,2014-02-01T19:30:00Z,30.3085,-88.1395,1.776,13.04,1111122 
DISL,ioos:station:DISL:CATA:1,2014-02-01T20:00:00Z,30.3085,-88.1395,1.79,12.98,1111122 
DISL,ioos:station:DISL:CATA:1,2014-02-01T20:30:00Z,30.3085,-88.1395,1.819,13.07,1111122 
DISL,ioos:station:DISL:CATA:1,2014-02-01T21:00:00Z,30.3085,-88.1395,1.838,13.24,1111122 
DISL,ioos:station:DISL:CATA:1,2014-02-01T21:30:00Z,30.3085,-88.1395,1.846,13.64,1111122 
DISL,ioos:station:DISL:CATA:1,2014-02-01T22:00:00Z,30.3085,-88.1395,1.86,14.12,1111122 
DISL,ioos:station:DISL:CATA:1,2014-02-01T22:30:00Z,30.3085,-88.1395,1.857,14.67,1111122 
DISL,ioos:station:DISL:CATA:1,2014-02-01T23:00:00Z,30.3085,-88.1395,1.849,15.16,1111122 
DISL,ioos:station:DISL:CATA:1,2014-02-01T23:30:00Z,30.3085,-88.1395,1.852,15.07,1111122 
DISL,ioos:station:DISL:CATA:1,2014-02-02T00:00:00Z,30.3085,-88.1395,1.862,14.75,1111122 
DISL,ioos:station:DISL:CATA:1,2014-02-02T00:30:00Z,30.3085,-88.1395,1.885,12.7,1111122 
DISL,ioos:station:DISL:CATA:1,2014-02-02T01:00:00Z,30.3085,-88.1395,1.91,12.74,1111122 
DISL,ioos:station:DISL:CATA:1,2014-02-02T01:30:00Z,30.3085,-88.1395,1.932,13.02,1111122 
DISL,ioos:station:DISL:CATA:1,2014-02-02T02:00:00Z,30.3085,-88.1395,1.957,14.08,1111122 
DISL,ioos:station:DISL:CATA:1,2014-02-02T02:30:00Z,30.3085,-88.1395,1.985,13.68,1111122 
DISL,ioos:station:DISL:CATA:1,2014-02-02T03:00:00Z,30.3085,-88.1395,2.01,13.25,1111122 
DISL,ioos:station:DISL:CATA:1,2014-02-02T03:30:00Z,30.3085,-88.1395,2.026,12.97,1111122 
DISL,ioos:station:DISL:CATA:1,2014-02-02T04:00:00Z,30.3085,-88.1395,2.032,14.1,1111122 
DISL,ioos:station:DISL:CATA:1,2014-02-02T04:30:00Z,30.3085,-88.1395,2.045,13.64,1111122 
DISL,ioos:station:DISL:CATA:1,2014-02-02T05:00:00Z,30.3085,-88.1395,2.038,13.51,1111122 
DISL,ioos:station:DISL:CATA:1,2014-02-02T05:30:00Z,30.3085,-88.1395,2.034,12.81,1111122 
DISL,ioos:station:DISL:CATA:1,2014-02-02T06:00:00Z,30.3085,-88.1395,2.039,12.38,1111122 
DISL,ioos:station:DISL:CATA:1,2014-02-02T06:30:00Z,30.3085,-88.1395,2.049,12.23,1111122 
DISL,ioos:station:DISL:CATA:1,2014-02-02T07:00:00Z,30.3085,-88.1395,2.053,12.06,1111122 
DISL,ioos:station:DISL:CATA:1,2014-02-02T07:30:00Z,30.3085,-88.1395,2.053,11.79,1111122 
DISL,ioos:station:DISL:CATA:1,2014-02-02T08:00:00Z,30.3085,-88.1395,2.052,11.59,1111122 
DISL,ioos:station:DISL:CATA:1,2014-02-02T08:30:00Z,30.3085,-88.1395,2.041,11.46,1111122 
DISL,ioos:station:DISL:CATA:1,2014-02-02T09:00:00Z,30.3085,-88.1395,2.014,11.28,1111122 
DISL,ioos:station:DISL:CATA:1,2014-02-02T09:30:00Z,30.3085,-88.1395,1.98,11.09,1111122 
DISL,ioos:station:DISL:CATA:1,2014-02-02T10:00:00Z,30.3085,-88.1395,1.941,11.49,1111122 
DISL,ioos:station:DISL:CATA:1,2014-02-02T10:30:00Z,30.3085,-88.1395,1.924,12.04,1111122 
DISL,ioos:station:DISL:CATA:1,2014-02-02T11:00:00Z,30.3085,-88.1395,1.916,12.59,1111122 
DISL,ioos:station:DISL:CATA:1,2014-02-02T11:30:00Z,30.3085,-88.1395,1.881,12.48,1111122 
DISL,ioos:station:DISL:CATA:1,2014-02-02T12:00:00Z,30.3085,-88.1395,1.857,12.41,1111122 
DISL,ioos:station:DISL:CATA:1,2014-02-02T12:30:00Z,30.3085,-88.1395,1.839,12.25,1111122 
DISL,ioos:station:DISL:CATA:1,2014-02-02T13:00:00Z,30.3085,-88.1395,1.818,12.33,1111122 
DISL,ioos:station:DISL:CATA:1,2014-02-02T13:30:00Z,30.3085,-88.1395,1.803,12.51,1111122 
DISL,ioos:station:DISL:CATA:1,2014-02-02T14:00:00Z,30.3085,-88.1395,1.803,12.65,1111122 
DISL,ioos:station:DISL:CATA:1,2014-02-02T14:30:00Z,30.3085,-88.1395,1.809,12.76,1111122 
DISL,ioos:station:DISL:CATA:1,2014-02-02T15:00:00Z,30.3085,-88.1395,1.807,12.78,1111122 
DISL,ioos:station:DISL:CATA:1,2014-02-02T15:30:00Z,30.3085,-88.1395,1.827,12.73,1111122 
DISL,ioos:station:DISL:CATA:1,2014-02-02T16:00:00Z,30.3085,-88.1395,1.854,12.65,1111122 
DISL,ioos:station:DISL:CATA:1,2014-02-02T16:30:00Z,30.3085,-88.1395,1.87,12.6,1111122 
DISL,ioos:station:DISL:CATA:1,2014-02-02T17:00:00Z,30.3085,-88.1395,1.877,12.53,1111122 
DISL,ioos:station:DISL:CATA:1,2014-02-02T17:30:00Z,30.3085,-88.1395,1.86,12.48,1111122 
DISL,ioos:station:DISL:CATA:1,2014-02-02T18:00:00Z,30.3085,-88.1395,1.89,12.44,1111122 
DISL,ioos:station:DISL:CATA:1,2014-02-02T18:30:00Z,30.3085,-88.1395,1.904,12.44,1111122 
DISL,ioos:station:DISL:CATA:1,2014-02-02T19:00:00Z,30.3085,-88.1395,1.906,12.42,1111122 
DISL,ioos:station:DISL:CATA:1,2014-02-02T19:30:00Z,30.3085,-88.1395,1.928,12.34,1111122 
DISL,ioos:station:DISL:CATA:1,2014-02-02T20:00:00Z,30.3085,-88.1395,1.936,12.36,1111122 
DISL,ioos:station:DISL:CATA:1,2014-02-02T20:30:00Z,30.3085,-88.1395,1.954,12.32,1111122 
DISL,ioos:station:DISL:CATA:1,2014-02-02T21:00:00Z,30.3085,-88.1395,1.959,12.49,1111122 
DISL,ioos:station:DISL:CATA:1,2014-02-02T21:30:00Z,30.3085,-88.1395,1.972,12.55,1111122 
DISL,ioos:station:DISL:CATA:1,2014-02-02T22:00:00Z,30.3085,-88.1395,1.974,12.58,1111122 
DISL,ioos:station:DISL:CATA:1,2014-02-02T22:30:00Z,30.3085,-88.1395,1.995,12.61,1111122 
DISL,ioos:station:DISL:CATA:1,2014-02-02T23:00:00Z,30.3085,-88.1395,1.999,12.63,1111122 
DISL,ioos:station:DISL:CATA:1,2014-02-02T23:30:00Z,30.3085,-88.1395,1.988,12.44,1111122 
DISL,ioos:station:DISL:CATA:1,2014-02-03T00:00:00Z,30.3085,-88.1395,1.981,12.26,1111122 
DISL,ioos:station:DISL:CATA:1,2014-02-03T00:30:00Z,30.3085,-88.1395,1.978,12.24,1111122 
DISL,ioos:station:DISL:CATA:1,2014-02-03T01:00:00Z,30.3085,-88.1395,1.982,12.25,1111122 
DISL,ioos:station:DISL:CATA:1,2014-02-03T01:30:00Z,30.3085,-88.1395,1.996,12.35,1111122 
DISL,ioos:station:DISL:CATA:1,2014-02-03T02:00:00Z,30.3085,-88.1395,2.024,12.37,1111122 
DISL,ioos:station:DISL:CATA:1,2014-02-03T02:30:00Z,30.3085,-88.1395,2.063,12.14,1111122 
DISL,ioos:station:DISL:CATA:1,2014-02-03T03:00:00Z,30.3085,-88.1395,2.083,12.02,1111122 
DISL,ioos:station:DISL:CATA:1,2014-02-03T03:30:00Z,30.3085,-88.1395,2.1,11.96,1111122 
DISL,ioos:station:DISL:CATA:1,2014-02-03T04:00:00Z,30.3085,-88.1395,2.127,11.91,1111122 
DISL,ioos:station:DISL:CATA:1,2014-02-03T04:30:00Z,30.3085,-88.1395,2.132,11.89,1111122 
DISL,ioos:station:DISL:CATA:1,2014-02-03T05:00:00Z,30.3085,-88.1395,2.134,12.04,1111122 
DISL,ioos:station:DISL:CATA:1,2014-02-03T05:30:00Z,30.3085,-88.1395,2.13,12.02,1111122 
DISL,ioos:station:DISL:CATA:1,2014-02-03T06:00:00Z,30.3085,-88.1395,2.128,12.27,1111122 
DISL,ioos:station:DISL:CATA:1,2014-02-03T06:30:00Z,30.3085,-88.1395,2.116,12.29,1111122 
DISL,ioos:station:DISL:CATA:1,2014-02-03T07:00:00Z,30.3085,-88.1395,2.103,12.33,1111122 
DISL,ioos:station:DISL:CATA:1,2014-02-03T07:30:00Z,30.3085,-88.1395,2.104,12.14,1111122 
DISL,ioos:station:DISL:CATA:1,2014-02-03T08:00:00Z,30.3085,-88.1395,2.102,12.19,1111122 
DISL,ioos:station:DISL:CATA:1,2014-02-03T08:30:00Z,30.3085,-88.1395,2.109,12.02,1111122 
DISL,ioos:station:DISL:CATA:1,2014-02-03T09:00:00Z,30.3085,-88.1395,2.118,11.7,1111122 
DISL,ioos:station:DISL:CATA:1,2014-02-03T09:30:00Z,30.3085,-88.1395,2.117,11.58,1111122 
DISL,ioos:station:DISL:CATA:1,2014-02-03T10:00:00Z,30.3085,-88.1395,2.109,11.56,1111122 
DISL,ioos:station:DISL:CATA:1,2014-02-03T10:30:00Z,30.3085,-88.1395,2.09,11.54,1111122 
DISL,ioos:station:DISL:CATA:1,2014-02-03T11:00:00Z,30.3085,-88.1395,2.06,11.67,1111122 
DISL,ioos:station:DISL:CATA:1,2014-02-03T11:30:00Z,30.3085,-88.1395,2.029,11.68,1111122 
DISL,ioos:station:DISL:CATA:1,2014-02-03T12:00:00Z,30.3085,-88.1395,1.991,11.49,1111122 
DISL,ioos:station:DISL:CATA:1,2014-02-03T12:30:00Z,30.3085,-88.1395,1.968,11.52,1111122 
DISL,ioos:station:DISL:CATA:1,2014-02-03T13:00:00Z,30.3085,-88.1395,1.951,11.6,1111122 
DISL,ioos:station:DISL:CATA:1,2014-02-03T13:30:00Z,30.3085,-88.1395,1.904,11.66,1111122 
DISL,ioos:station:DISL:CATA:1,2014-02-03T14:00:00Z,30.3085,-88.1395,1.914,11.77,1111122 
DISL,ioos:station:DISL:CATA:1,2014-02-03T14:30:00Z,30.3085,-88.1395,1.895,11.8,1111122 
DISL,ioos:station:DISL:CATA:1,2014-02-03T15:00:00Z,30.3085,-88.1395,1.877,11.86,1111122 
DISL,ioos:station:DISL:CATA:1,2014-02-03T15:30:00Z,30.3085,-88.1395,1.858,11.9,1111122 
DISL,ioos:station:DISL:CATA:1,2014-02-03T16:00:00Z,30.3085,-88.1395,1.843,11.77,1111122 
DISL,ioos:station:DISL:CATA:1,2014-02-03T16:30:00Z,30.3085,-88.1395,1.825,11.75,1111122 
DISL,ioos:station:DISL:CATA:1,2014-02-03T17:00:00Z,30.3085,-88.1395,1.818,11.81,1111122 
DISL,ioos:station:DISL:CATA:1,2014-02-03T17:30:00Z,30.3085,-88.1395,1.816,11.93,1111122 
DISL,ioos:station:DISL:CATA:1,2014-02-03T18:00:00Z,30.3085,-88.1395,1.834,11.99,1111122 
DISL,ioos:station:DISL:CATA:1,2014-02-03T18:30:00Z,30.3085,-88.1395,1.847,11.98,1111122 
DISL,ioos:station:DISL:CATA:1,2014-02-03T19:00:00Z,30.3085,-88.1395,1.856,11.84,1111122 
DISL,ioos:station:DISL:CATA:1,2014-02-03T19:30:00Z,30.3085,-88.1395,1.875,11.95,1111122 
DISL,ioos:station:DISL:CATA:1,2014-02-03T20:00:00Z,30.3085,-88.1395,1.897,12.05,1111122 
DISL,ioos:station:DISL:CATA:1,2014-02-03T20:30:00Z,30.3085,-88.1395,1.906,12.12,1111122 
DISL,ioos:station:DISL:CATA:1,2014-02-03T21:00:00Z,30.3085,-88.1395,1.903,12.14,1111122 
DISL,ioos:station:DISL:CATA:1,2014-02-03T21:30:00Z,30.3085,-88.1395,1.914,12.24,1111122 
DISL,ioos:station:DISL:CATA:1,2014-02-03T22:00:00Z,30.3085,-88.1395,1.907,12.21,1111122 
DISL,ioos:station:DISL:CATA:1,2014-02-03T22:30:00Z,30.3085,-88.1395,1.882,12.19,1111122 
DISL,ioos:station:DISL:CATA:1,2014-02-03T23:00:00Z,30.3085,-88.1395,1.87,12.0,1111122 
DISL,ioos:station:DISL:CATA:1,2014-02-03T23:30:00Z,30.3085,-88.1395,1.855,11.82,1111122 
DISL,ioos:station:DISL:CATA:1,2014-02-04T00:00:00Z,30.3085,-88.1395,1.831,11.71,1111122 
DISL,ioos:station:DISL:CATA:1,2014-02-04T00:30:00Z,30.3085,-88.1395,1.822,11.62,1111122 
DISL,ioos:station:DISL:CATA:1,2014-02-04T01:00:00Z,30.3085,-88.1395,1.822,11.66,1111122 
DISL,ioos:station:DISL:CATA:1,2014-02-04T01:30:00Z,30.3085,-88.1395,1.807,11.47,1111122 
DISL,ioos:station:DISL:CATA:1,2014-02-04T02:00:00Z,30.3085,-88.1395,1.799,11.39,1111122 
DISL,ioos:station:DISL:CATA:1,2014-02-04T02:30:00Z,30.3085,-88.1395,1.811,11.48,1111122 
DISL,ioos:station:DISL:CATA:1,2014-02-04T03:00:00Z,30.3085,-88.1395,1.822,11.47,1111122 
DISL,ioos:station:DISL:CATA:1,2014-02-04T03:30:00Z,30.3085,-88.1395,1.825,11.57,1111122 
DISL,ioos:station:DISL:CATA:1,2014-02-04T04:00:00Z,30.3085,-88.1395,1.84,11.45,1111122 
DISL,ioos:station:DISL:CATA:1,2014-02-04T04:30:00Z,30.3085,-88.1395,1.862,11.28,1111122 
DISL,ioos:station:DISL:CATA:1,2014-02-04T05:00:00Z,30.3085,-88.1395,1.874,11.17,1111122 
DISL,ioos:station:DISL:CATA:1,2014-02-04T05:30:00Z,30.3085,-88.1395,1.877,11.04,1111122 
DISL,ioos:station:DISL:CATA:1,2014-02-04T06:00:00Z,30.3085,-88.1395,1.884,11.04,1111122 
DISL,ioos:station:DISL:CATA:1,2014-02-04T06:30:00Z,30.3085,-88.1395,1.868,10.57,1111122 
DISL,ioos:station:DISL:CATA:1,2014-02-04T07:00:00Z,30.3085,-88.1395,1.872,10.47,1111122 
DISL,ioos:station:DISL:CATA:1,2014-02-04T07:30:00Z,30.3085,-88.1395,1.888,9.69,1111122 
DISL,ioos:station:DISL:CATA:1,2014-02-04T08:00:00Z,30.3085,-88.1395,1.891,9.36,1111122 
DISL,ioos:station:DISL:CATA:1,2014-02-04T08:30:00Z,30.3085,-88.1395,1.897,9.25,1111122 
DISL,ioos:station:DISL:CATA:1,2014-02-04T09:00:00Z,30.3085,-88.1395,1.918,9.3,1111122 
DISL,ioos:station:DISL:CATA:1,2014-02-04T09:30:00Z,30.3085,-88.1395,1.937,9.1,1111122 
DISL,ioos:station:DISL:CATA:1,2014-02-04T10:00:00Z,30.3085,-88.1395,1.954,8.65,1111122 
DISL,ioos:station:DISL:CATA:1,2014-02-04T10:30:00Z,30.3085,-88.1395,1.955,8.68,1111122 
DISL,ioos:station:DISL:CATA:1,2014-02-04T11:00:00Z,30.3085,-88.1395,1.963,8.78,1111122 
DISL,ioos:station:DISL:CATA:1,2014-02-04T11:30:00Z,30.3085,-88.1395,1.951,8.69,1111122 
DISL,ioos:station:DISL:CATA:1,2014-02-04T12:00:00Z,30.3085,-88.1395,1.954,8.54,1111122 
DISL,ioos:station:DISL:CATA:1,2014-02-04T12:30:00Z,30.3085,-88.1395,1.954,8.41,1111122 
DISL,ioos:station:DISL:CATA:1,2014-02-04T13:00:00Z,30.3085,-88.1395,1.96,8.92,1111122 
DISL,ioos:station:DISL:CATA:1,2014-02-04T13:30:00Z,30.3085,-88.1395,1.97,8.75,1111122 
DISL,ioos:station:DISL:CATA:1,2014-02-04T14:00:00Z,30.3085,-88.1395,1.973,8.44,1111122 
DISL,ioos:station:DISL:CATA:1,2014-02-04T14:30:00Z,30.3085,-88.1395,1.999,9.06,1111122 
DISL,ioos:station:DISL:CATA:1,2014-02-04T15:00:00Z,30.3085,-88.1395,2.014,8.1,1111122 
DISL,ioos:station:DISL:CATA:1,2014-02-04T15:30:00Z,30.3085,-88.1395,2.033,8.55,1111122 
DISL,ioos:station:DISL:CATA:1,2014-02-04T16:00:00Z,30.3085,-88.1395,2.057,9.11,1111122 
DISL,ioos:station:DISL:CATA:1,2014-02-04T16:30:00Z,30.3085,-88.1395,2.082,9.32,1111122 
DISL,ioos:station:DISL:CATA:1,2014-02-04T17:00:00Z,30.3085,-88.1395,2.104,10.08,1111122 
DISL,ioos:station:DISL:CATA:1,2014-02-04T17:30:00Z,30.3085,-88.1395,2.107,10.72,1111122 
DISL,ioos:station:DISL:CATA:1,2014-02-04T18:00:00Z,30.3085,-88.1395,2.108,10.89,1111122 
DISL,ioos:station:DISL:CATA:1,2014-02-04T18:30:00Z,30.3085,-88.1395,2.113,11.02,1111122 
DISL,ioos:station:DISL:CATA:1,2014-02-04T19:00:00Z,30.3085,-88.1395,2.121,10.98,1111122 
DISL,ioos:station:DISL:CATA:1,2014-02-04T19:30:00Z,30.3085,-88.1395,2.118,10.26,1111122 
DISL,ioos:station:DISL:CATA:1,2014-02-04T20:00:00Z,30.3085,-88.1395,2.122,10.11,1111122 
DISL,ioos:station:DISL:CATA:1,2014-02-04T20:30:00Z,30.3085,-88.1395,2.119,10.25,1111122 
DISL,ioos:station:DISL:CATA:1,2014-02-04T21:00:00Z,30.3085,-88.1395,2.123,10.09,1111122 
DISL,ioos:station:DISL:CATA:1,2014-02-04T21:30:00Z,30.3085,-88.1395,2.127,9.72,1111122 
DISL,ioos:station:DISL:CATA:1,2014-02-04T22:00:00Z,30.3085,-88.1395,2.136,9.49,1111122 
DISL,ioos:station:DISL:CATA:1,2014-02-04T22:30:00Z,30.3085,-88.1395,2.123,9.97,1111122 
DISL,ioos:station:DISL:CATA:1,2014-02-04T23:00:00Z,30.3085,-88.1395,2.112,9.2,1111122 
DISL,ioos:station:DISL:CATA:1,2014-02-04T23:30:00Z,30.3085,-88.1395,2.096,9.5,1111122 
DISL,ioos:station:DISL:CATA:1,2014-02-05T00:00:00Z,30.3085,-88.1395,2.065,9.46,1111122 
DISL,ioos:station:DISL:CATA:1,2014-02-05T00:30:00Z,30.3085,-88.1395,2.052,9.91,1111122 
DISL,ioos:station:DISL:CATA:1,2014-02-05T01:00:00Z,30.3085,-88.1395,2.016,10.39,1111122 
DISL,ioos:station:DISL:CATA:1,2014-02-05T01:30:00Z,30.3085,-88.1395,2.002,11.47,1111122 
DISL,ioos:station:DISL:CATA:1,2014-02-05T02:00:00Z,30.3085,-88.1395,1.99,12.07,1111122 
DISL,ioos:station:DISL:CATA:1,2014-02-05T02:30:00Z,30.3085,-88.1395,1.977,12.49,1111122 
DISL,ioos:station:DISL:CATA:1,2014-02-05T03:00:00Z,30.3085,-88.1395,1.954,12.29,1111122 
DISL,ioos:station:DISL:CATA:1,2014-02-05T03:30:00Z,30.3085,-88.1395,1.952,12.14,1111122 
DISL,ioos:station:DISL:CATA:1,2014-02-05T04:00:00Z,30.3085,-88.1395,1.971,12.16,1111122 
DISL,ioos:station:DISL:CATA:1,2014-02-05T04:30:00Z,30.3085,-88.1395,1.967,12.17,1111122 
DISL,ioos:station:DISL:CATA:1,2014-02-05T05:00:00Z,30.3085,-88.1395,1.986,12.12,1111122 
DISL,ioos:station:DISL:CATA:1,2014-02-05T05:30:00Z,30.3085,-88.1395,2.001,11.98,1111122 
DISL,ioos:station:DISL:CATA:1,2014-02-05T06:00:00Z,30.3085,-88.1395,1.983,11.89,1111122 
DISL,ioos:station:DISL:CATA:1,2014-02-05T06:30:00Z,30.3085,-88.1395,1.974,11.75,1111122 
DISL,ioos:station:DISL:CATA:1,2014-02-05T07:00:00Z,30.3085,-88.1395,1.962,11.65,1111122 
DISL,ioos:station:DISL:CATA:1,2014-02-05T07:30:00Z,30.3085,-88.1395,1.963,11.48,1111122 
DISL,ioos:station:DISL:CATA:1,2014-02-05T08:00:00Z,30.3085,-88.1395,1.956,11.36,1111122 
DISL,ioos:station:DISL:CATA:1,2014-02-05T08:30:00Z,30.3085,-88.1395,1.958,11.14,1111122 
DISL,ioos:station:DISL:CATA:1,2014-02-05T09:00:00Z,30.3085,-88.1395,1.937,10.96,1111122 
DISL,ioos:station:DISL:CATA:1,2014-02-05T09:30:00Z,30.3085,-88.1395,1.927,11.2,1111122 
DISL,ioos:station:DISL:CATA:1,2014-02-05T10:00:00Z,30.3085,-88.1395,1.92,11.18,1111122 
DISL,ioos:station:DISL:CATA:1,2014-02-05T10:30:00Z,30.3085,-88.1395,1.91,11.37,1111122 
DISL,ioos:station:DISL:CATA:1,2014-02-05T11:00:00Z,30.3085,-88.1395,1.914,11.45,1111122 
DISL,ioos:station:DISL:CATA:1,2014-02-05T11:30:00Z,30.3085,-88.1395,1.924,11.46,1111122 
DISL,ioos:station:DISL:CATA:1,2014-02-05T12:00:00Z,30.3085,-88.1395,1.921,11.44,1111122 
DISL,ioos:station:DISL:CATA:1,2014-02-05T12:30:00Z,30.3085,-88.1395,1.895,11.42,1111122 
DISL,ioos:station:DISL:CATA:1,2014-02-05T13:00:00Z,30.3085,-88.1395,1.882,11.34,1111122 
DISL,ioos:station:DISL:CATA:1,2014-02-05T13:30:00Z,30.3085,-88.1395,1.849,11.16,1111122 
DISL,ioos:station:DISL:CATA:1,2014-02-05T14:00:00Z,30.3085,-88.1395,1.854,11.12,1111122 
DISL,ioos:station:DISL:CATA:1,2014-02-05T14:30:00Z,30.3085,-88.1395,1.864,11.11,1111122 
DISL,ioos:station:DISL:CATA:1,2014-02-05T15:00:00Z,30.3085,-88.1395,1.866,11.19,1111122 
DISL,ioos:station:DISL:CATA:1,2014-02-05T15:30:00Z,30.3085,-88.1395,1.879,11.27,1111122 
DISL,ioos:station:DISL:CATA:1,2014-02-05T16:00:00Z,30.3085,-88.1395,1.905,11.51,1111122 
DISL,ioos:station:DISL:CATA:1,2014-02-05T16:30:00Z,30.3085,-88.1395,1.932,11.64,1111122 
DISL,ioos:station:DISL:CATA:1,2014-02-05T17:00:00Z,30.3085,-88.1395,1.962,11.68,1111122 
DISL,ioos:station:DISL:CATA:1,2014-02-05T17:30:00Z,30.3085,-88.1395,1.993,11.7,1111122 
DISL,ioos:station:DISL:CATA:1,2014-02-05T18:00:00Z,30.3085,-88.1395,2.035,11.45,1111122 
DISL,ioos:station:DISL:CATA:1,2014-02-05T18:30:00Z,30.3085,-88.1395,2.04,11.36,1111122 
DISL,ioos:station:DISL:CATA:1,2014-02-05T19:00:00Z,30.3085,-88.1395,2.037,10.87,1111122 
DISL,ioos:station:DISL:CATA:1,2014-02-05T19:30:00Z,30.3085,-88.1395,2.051,10.9,1111122 
DISL,ioos:station:DISL:CATA:1,2014-02-05T20:00:00Z,30.3085,-88.1395,2.052,10.91,1111122 
DISL,ioos:station:DISL:CATA:1,2014-02-05T20:30:00Z,30.3085,-88.1395,2.063,11.29,1111122 
DISL,ioos:station:DISL:CATA:1,2014-02-05T21:00:00Z,30.3085,-88.1395,2.056,11.15,1111122 
DISL,ioos:station:DISL:CATA:1,2014-02-05T21:30:00Z,30.3085,-88.1395,2.027,11.04,1111122 
DISL,ioos:station:DISL:CATA:1,2014-02-05T22:00:00Z,30.3085,-88.1395,2.057,11.01,1111122 
DISL,ioos:station:DISL:CATA:1,2014-02-05T22:30:00Z,30.3085,-88.1395,2.056,10.88,1111122 
DISL,ioos:station:DISL:CATA:1,2014-02-05T23:00:00Z,30.3085,-88.1395,2.049,10.97,1111122 
DISL,ioos:station:DISL:CATA:1,2014-02-05T23:30:00Z,30.3085,-88.1395,2.037,10.95,1111122 
DISL,ioos:station:DISL:CATA:1,2014-02-06T00:00:00Z,30.3085,-88.1395,2.015,10.82,1111122 
DISL,ioos:station:DISL:CATA:1,2014-02-06T00:30:00Z,30.3085,-88.1395,1.978,10.62,1111122 
DISL,ioos:station:DISL:CATA:1,2014-02-06T01:00:00Z,30.3085,-88.1395,1.958,10.45,1111122 
DISL,ioos:station:DISL:CATA:1,2014-02-06T01:30:00Z,30.3085,-88.1395,1.931,10.6,1111122 
DISL,ioos:station:DISL:CATA:1,2014-02-06T02:00:00Z,30.3085,-88.1395,1.89,11.47,1111122 
DISL,ioos:station:DISL:CATA:1,2014-02-06T02:30:00Z,30.3085,-88.1395,1.847,11.34,1111122 
DISL,ioos:station:DISL:CATA:1,2014-02-06T03:00:00Z,30.3085,-88.1395,1.804,11.11,1111122 
DISL,ioos:station:DISL:CATA:1,2014-02-06T03:30:00Z,30.3085,-88.1395,1.762,11.16,1111122 
DISL,ioos:station:DISL:CATA:1,2014-02-06T04:00:00Z,30.3085,-88.1395,1.733,10.99,1111122 
DISL,ioos:station:DISL:CATA:1,2014-02-06T04:30:00Z,30.3085,-88.1395,1.727,11.1,1111122 
DISL,ioos:station:DISL:CATA:1,2014-02-06T05:00:00Z,30.3085,-88.1395,1.719,11.09,1111122 
DISL,ioos:station:DISL:CATA:1,2014-02-06T05:30:00Z,30.3085,-88.1395,1.724,11.05,1111122 
DISL,ioos:station:DISL:CATA:1,2014-02-06T06:00:00Z,30.3085,-88.1395,1.717,11.02,1111122 
DISL,ioos:station:DISL:CATA:1,2014-02-06T06:30:00Z,30.3085,-88.1395,1.711,10.93,1111122 
DISL,ioos:station:DISL:CATA:1,2014-02-06T07:00:00Z,30.3085,-88.1395,1.709,10.76,1111122 
DISL,ioos:station:DISL:CATA:1,2014-02-06T07:30:00Z,30.3085,-88.1395,1.701,10.68,1111122 
DISL,ioos:station:DISL:CATA:1,2014-02-06T08:00:00Z,30.3085,-88.1395,1.678,10.65,1111122 
DISL,ioos:station:DISL:CATA:1,2014-02-06T08:30:00Z,30.3085,-88.1395,1.672,10.65,1111122 
DISL,ioos:station:DISL:CATA:1,2014-02-06T09:00:00Z,30.3085,-88.1395,1.676,10.59,1111122 
DISL,ioos:station:DISL:CATA:1,2014-02-06T09:30:00Z,30.3085,-88.1395,1.643,10.58,1111122 
DISL,ioos:station:DISL:CATA:1,2014-02-06T10:00:00Z,30.3085,-88.1395,1.626,10.58,1111122 
DISL,ioos:station:DISL:CATA:1,2014-02-06T10:30:00Z,30.3085,-88.1395,1.646,10.56,1111122 
DISL,ioos:station:DISL:CATA:1,2014-02-06T11:00:00Z,30.3085,-88.1395,1.637,10.56,1111122 
DISL,ioos:station:DISL:CATA:1,2014-02-06T11:30:00Z,30.3085,-88.1395,1.639,10.52,1111122 
DISL,ioos:station:DISL:CATA:1,2014-02-06T12:00:00Z,30.3085,-88.1395,1.666,10.52,1111122 
DISL,ioos:station:DISL:CATA:1,2014-02-06T12:30:00Z,30.3085,-88.1395,1.694,10.49,1111122 
DISL,ioos:station:DISL:CATA:1,2014-02-06T13:00:00Z,30.3085,-88.1395,1.697,10.47,1111122 
DISL,ioos:station:DISL:CATA:1,2014-02-06T13:30:00Z,30.3085,-88.1395,1.715,10.45,1111122 
DISL,ioos:station:DISL:CATA:1,2014-02-06T14:00:00Z,30.3085,-88.1395,1.721,10.42,1111122 